FW9599 Weather Reports


time (UTC)temp
F
wind
direction
speed
knots
gust
knots
rain 1hr
in
rain 24hr
in
rain mn
in
humidity
%
barometer
mb
20260906220058 94 192 6.1 15.6 0.00 0.00 0.00 44 1007.6
20260906214555 95 142 5.2 10.4 0.00 0.00 0.00 42 1007.6
20260906213057 94 146 3.5 11.3 0.00 0.00 0.00 43 1007.9
20260906211550 95 146 3.5 12.2 0.00 0.00 0.00 41 1008.0
20260906210051 95 62 5.2 10.4 0.00 0.00 0.00 41 1008.3
20260906204601 96 99 7.8 11.3 0.00 0.00 0.00 41 1008.6
20260906203046 95 95 2.6 8.7 0.00 0.00 0.00 42 1008.7
20260906201557 94 108 3.5 12.2 0.00 0.00 0.00 43 1009.1
20260906200040 94 102 0.9 9.6 0.00 0.00 0.00 44 1009.1
20260906194538 93 133 7.0 10.4 0.00 0.00 0.00 44 1009.3
20260906193037 94 136 7.0 10.4 0.00 0.00 0.00 44 1009.5
20260906191535 93 123 6.1 12.2 0.00 0.00 0.00 46 1009.7
20260906190032 93 88 4.3 11.3 0.00 0.00 0.00 46 1010.0
20260906184528 93 110 2.6 13.0 0.00 0.00 0.00 46 1010.1
20260906183025 92 150 9.6 14.8 0.00 0.00 0.00 46 1010.4
20260906181521 91 146 7.0 13.9 0.00 0.00 0.00 48 1010.6
20260906180018 91 107 7.8 12.2 0.00 0.00 0.00 49 1010.8
20260906174514 91 92 8.7 15.6 0.00 0.00 0.00 50 1011.1
20260906173011 91 59 7.8 13.0 0.00 0.00 0.00 50 1011.3
20260906171506 90 85 7.0 12.2 0.00 0.00 0.00 53 1011.4
20260906170004 90 87 6.1 10.4 0.00 0.00 0.00 54 1011.5
20260906164608 89 125 5.2 9.6 0.00 0.00 0.00 55 1011.5
20260906163054 89 115 2.6 7.0 0.00 0.00 0.00 59 1011.6
20260906161556 88 89 1.7 5.2 0.00 0.00 0.00 61 1011.7
20260906160046 87 155 0.9 5.2 0.00 0.00 0.00 62 1011.8
20260906154547 86 157 2.6 4.3 0.00 0.00 0.00 64 1011.7
20260906153037 85 157 0.9 2.6 0.00 0.00 0.00 65 1011.7
20260906151535 84 157 1.7 5.2 0.00 0.00 0.00 68 1011.6
20260906150034 83 153 0.0 2.6 0.00 0.00 0.00 71 1011.5
20260906144527 82 153 1.7 4.3 0.00 0.01 0.00 72 1011.5
20260906143025 81 152 1.7 4.3 0.00 0.01 0.00 74 1011.5
20260906141518 80 152 0.9 4.3 0.00 0.01 0.00 77 1011.6
20260906140030 78 153 0.0 2.6 0.00 0.01 0.00 81 1011.5
20260906134512 77 153 1.7 4.3 0.00 0.01 0.00 82 1011.5
20260906133020 75 154 0.0 1.7 0.00 0.01 0.00 87 1011.4
20260906131503 73 154 0.0 0.0 0.00 0.01 0.00 89 1011.2
20260906124555 72 154 0.0 0.0 0.00 0.01 0.00 90 1011.0
20260906123059 72 154 0.0 0.9 0.00 0.01 0.00 89 1010.8
20260906121549 72 154 0.0 2.6 0.00 0.01 0.00 89 1010.6
20260906120056 72 154 0.0 0.0 0.00 0.01 0.00 88 1010.5
20260906114559 72 154 0.0 0.9 0.00 0.01 0.00 87 1010.3
20260906113045 72 154 0.0 0.9 0.00 0.01 0.00 86 1010.1
20260906111548 72 153 0.9 2.6 0.00 0.01 0.00 86 1010.0
20260906110042 73 151 0.0 0.0 0.00 0.01 0.00 86 1009.9
20260906104544 73 151 0.0 1.7 0.00 0.01 0.00 86 1010.0
20260906103048 73 151 0.9 1.7 0.00 0.01 0.00 86 1009.9
20260906101542 73 151 0.9 5.2 0.00 0.01 0.00 86 1009.7
20260906100045 73 157 0.0 2.6 0.00 0.01 0.00 88 1009.6
20260906094548 73 157 0.0 1.7 0.00 0.01 0.00 88 1009.3
20260906093040 73 157 0.0 0.0 0.00 0.01 0.00 87 1009.3
20260906091538 74 157 0.0 0.0 0.00 0.01 0.00 86 1009.2
20260906090034 74 157 0.0 0.0 0.00 0.01 0.00 86 1009.2
20260906084532 75 157 0.0 0.0 0.00 0.01 0.00 85 1009.3
20260906083031 75 157 0.0 0.0 0.00 0.01 0.00 84 1009.4
20260906081528 76 157 0.0 0.0 0.00 0.01 0.00 84 1009.4
20260906080027 76 157 0.0 0.0 0.00 0.01 0.00 81 1009.3
20260906074525 76 157 0.0 2.6 0.00 0.01 0.00 82 1009.4
20260906073024 76 157 0.9 1.7 0.00 0.01 0.00 80 1009.4
20260906071518 77 157 0.0 0.0 0.00 0.01 0.00 79 1009.7
20260906070022 77 157 0.0 0.0 0.00 0.01 0.00 76 1009.9
20260906064513 78 157 0.0 0.9 0.00 0.01 0.00 76 1010.0
20260906063009 79 157 0.0 0.0 0.00 0.01 0.00 72 1010.1
20260906061509 80 157 0.0 0.9 0.00 0.01 0.00 69 1010.2
20260906060004 81 157 0.0 0.0 0.00 0.01 0.00 67 1010.4
20260906054627 82 157 0.0 0.0 0.00 0.01 0.00 64 1010.4
20260906053056 83 157 0.9 4.3 0.00 0.01 0.00 62 1010.3
20260906051555 83 157 1.7 7.0 0.00 0.01 0.00 60 1010.3
20260906044553 84 125 0.9 3.5 0.00 0.01 0.01 57 1010.4
20260906043051 85 125 2.6 6.1 0.00 0.01 0.01 55 1010.3
20260906041551 85 125 4.3 9.6 0.00 0.01 0.01 54 1010.2
20260906040056 85 117 5.2 10.4 0.00 0.01 0.01 54 1010.2
20260906034553 85 128 4.3 7.8 0.00 0.01 0.01 55 1009.9
20260906033051 85 119 2.6 7.0 0.00 0.01 0.01 56 1009.7
20260906031608 85 134 4.3 8.7 0.00 0.01 0.01 58 1009.3
20260906030049 85 132 2.6 4.3 0.00 0.01 0.01 59 1009.2
20260906024559 86 132 2.6 4.3 0.00 0.01 0.01 58 1008.7
20260906023057 87 132 2.6 4.3 0.00 0.01 0.01 56 1008.5
20260906021547 88 132 3.5 6.1 0.00 0.01 0.01 55 1008.2
20260906020046 88 132 1.7 4.3 0.00 0.01 0.01 53 1008.1
20260906014547 89 132 3.5 6.1 0.00 0.01 0.01 52 1007.9
20260906013049 90 136 4.3 7.0 0.00 0.01 0.01 50 1007.6
20260906011546 91 130 4.3 9.6 0.00 0.01 0.01 48 1007.5
20260906010050 92 125 5.2 10.4 0.00 0.01 0.01 46 1007.4
20260906004545 94 135 5.2 10.4 0.00 0.01 0.01 44 1007.4
20260906003044 95 120 6.1 11.3 0.00 0.01 0.01 43 1007.3
20260906001544 95 130 6.1 8.7 0.00 0.01 0.01 41 1007.3
20260906000053 95 120 6.1 8.7 0.00 0.01 0.01 42 1007.2
20260905234549 96 119 4.3 8.7 0.00 0.32 0.01 41 1007.1
20260905233041 96 119 4.3 12.2 0.00 0.32 0.01 41 1007.0
20260905231541 96 96 5.2 9.6 0.00 0.32 0.01 40 1007.0
20260905230040 96 103 7.0 8.7 0.00 0.32 0.01 41 1007.0
20260905224539 97 69 6.1 10.4 0.00 1.69 0.01 41 1007.0
20260905223037 97 69 5.2 7.8 0.00 1.69 0.01 40 1007.1
20260905221535 96 103 6.1 11.3 0.00 1.69 0.01 41 1007.3